Weather History for Galliano, LA

Change the Weather History Date:

Wednesday, November 21, 2012

  Actual Average (KAXO) Record (KAXO)
Temperature  
Mean Temperature 60 °F -  
Max Temperature 77 °F 65 °F 75 °F (2004)
Min Temperature 44 °F 62 °F 44 °F (2006)
Degree Days  
Heating Degree Days 4    
Growing Degree Days 10 (Base 50)    
Moisture  
Dew Point 50 °F    
Average Humidity 79    
Maximum Humidity 100    
Minimum Humidity 38    
Precipitation  
Precipitation 0.00 in - - ()
Sea Level Pressure  
Sea Level Pressure 30.18 in    
Wind  
Wind Speed 2 mph (NNW)    
Max Wind Speed 12 mph    
Max Gust Speed -    
Visibility 9 miles    
Events Fog    
Averages and records for this station are not official NWS values.
T = Trace of Precipitation, MM = Missing Value Source: NWS Daily Summary

Daily Weather History Graph

Daily Weather History Graph

Search for Another Location

Airport:

Trip Planner

Search our weather history database for the weather conditions in past years. The results will help you decide how hot, cold, wet, or windy it might be!

Date:

Astronomy

Nov. 21, 2012 Rise Set
Actual Time 6:30 AM CST 5:03 PM CST
Civil Twilight 6:04 AM CST 5:28 PM CST
Nautical Twilight 5:35 AM CST 5:57 PM CST
Astronomical Twilight 5:07 AM CST 6:26 PM CST
Moon 12:54 PM CST (11/21) 12:17 AM CST (11/21)
Length of Visible Light 11h 23m
Length of Day
10h 33m
First Quarter, 62% of the Moon is Illuminated
Nov 21
First Quarter
Nov 28
Full
Dec 6
Last Quarter
Dec 13
New
Dec 19
First Quarter

Hourly Weather History & Observations

Time (CST) Temp. Dew Point Humidity Pressure Visibility Wind Dir Wind Speed Gust Speed Precip Events Conditions
12:15 AM 48.2 °F 46.4 °F 93% 30.17 in 10.0 mi Calm Calm - N/A   Clear
12:35 AM 48.2 °F 46.4 °F 93% 30.17 in 10.0 mi Calm Calm - N/A   Clear
12:55 AM 48.2 °F 46.4 °F 93% 30.17 in 10.0 mi Calm Calm - N/A   Clear
1:15 AM 48.2 °F 46.4 °F 93% 30.16 in 10.0 mi Calm Calm - N/A   Clear
1:35 AM 48.2 °F 46.4 °F 93% 30.16 in 10.0 mi Calm Calm - N/A   Clear
1:55 AM 48.2 °F 46.4 °F 93% 30.16 in 10.0 mi Calm Calm - N/A   Clear
2:15 AM 46.4 °F 46.4 °F 100% 30.16 in 10.0 mi Calm Calm - N/A   Clear
2:35 AM 46.4 °F 46.4 °F 100% 30.16 in 10.0 mi Calm Calm - N/A   Clear
2:55 AM 46.4 °F 44.6 °F 93% 30.16 in 10.0 mi Calm Calm - N/A   Clear
3:15 AM 46.4 °F 46.4 °F 100% 30.16 in 10.0 mi Calm Calm - N/A   Clear
3:35 AM 46.4 °F 46.4 °F 100% 30.16 in 10.0 mi Calm Calm - N/A   Clear
3:55 AM 46.4 °F 46.4 °F 100% 30.16 in 10.0 mi Calm Calm - N/A   Clear
4:15 AM 46.4 °F 44.6 °F 93% 30.17 in 10.0 mi Calm Calm - N/A   Clear
4:35 AM 46.4 °F 44.6 °F 93% 30.17 in 10.0 mi Calm Calm - N/A   Clear
4:55 AM 44.6 °F 44.6 °F 100% 30.17 in 10.0 mi Calm Calm - N/A   Clear
5:15 AM 46.4 °F 44.6 °F 93% 30.17 in 10.0 mi Calm Calm - N/A   Clear
5:35 AM 44.6 °F 44.6 °F 100% 30.18 in 10.0 mi Calm Calm - N/A   Clear
5:55 AM 44.6 °F 44.6 °F 100% 30.18 in 10.0 mi Calm Calm - N/A   Clear
6:15 AM 46.4 °F 44.6 °F 93% 30.19 in 10.0 mi Calm Calm - N/A   Clear
6:35 AM 46.4 °F 44.6 °F 93% 30.20 in 10.0 mi Calm Calm - N/A   Clear
6:55 AM 46.4 °F 46.4 °F 100% 30.20 in 10.0 mi Calm Calm - N/A   Clear
7:15 AM 48.2 °F 46.4 °F 93% 30.21 in 10.0 mi Calm Calm - N/A   Clear
7:35 AM 51.8 °F 50.0 °F 94% 30.22 in 10.0 mi Calm Calm - N/A   Clear
7:55 AM 55.4 °F 53.6 °F 94% 30.22 in 10.0 mi Calm Calm - N/A   Clear
8:15 AM 60.8 °F 53.6 °F 77% 30.23 in 10.0 mi Calm Calm - N/A   Clear
8:35 AM 62.6 °F 53.6 °F 72% 30.23 in 10.0 mi WNW 3.5 mph - N/A   Unknown
8:55 AM 64.4 °F 51.8 °F 64% 30.23 in 10.0 mi Calm Calm - N/A   Unknown
9:15 AM 68.0 °F 50.0 °F 52% 30.24 in 10.0 mi WNW 4.6 mph - N/A   Unknown
9:35 AM 69.8 °F 50.0 °F 49% 30.24 in 10.0 mi WNW 4.6 mph - N/A   Unknown
9:55 AM 69.8 °F 50.0 °F 49% 30.23 in 10.0 mi WNW 5.8 mph - N/A   Unknown
10:15 AM 71.6 °F 46.4 °F 41% 30.23 in 10.0 mi WNW 5.8 mph - N/A   Unknown
10:35 AM 73.4 °F 46.4 °F 38% 30.22 in 10.0 mi NW 4.6 mph - N/A   Unknown
10:55 AM 73.4 °F 48.2 °F 41% 30.22 in 10.0 mi NNW 8.1 mph - N/A   Unknown
11:15 AM 73.4 °F 50.0 °F 44% 30.21 in 10.0 mi North 8.1 mph - N/A   Unknown
11:35 AM 75.2 °F 50.0 °F 41% 30.20 in 10.0 mi NNW 11.5 mph - N/A   Clear
11:55 AM 75.2 °F 51.8 °F 44% 30.18 in 10.0 mi North 5.8 mph - N/A   Clear
12:15 PM 75.2 °F 51.8 °F 44% 30.18 in 10.0 mi North 8.1 mph - N/A   Clear
12:35 PM 77.0 °F 53.6 °F 44% 30.17 in 10.0 mi NNW 8.1 mph - N/A   Unknown
12:55 PM 77.0 °F 53.6 °F 44% 30.16 in 10.0 mi North 8.1 mph - N/A   Unknown
1:15 PM 75.2 °F 53.6 °F 47% 30.16 in 10.0 mi NNE 6.9 mph - N/A   Unknown
1:55 PM 75.2 °F 53.6 °F 47% 30.15 in 10.0 mi NE 8.1 mph - N/A   Clear
2:15 PM 73.4 °F 53.6 °F 50% 30.15 in 10.0 mi North 6.9 mph - N/A   Clear
2:35 PM 73.4 °F 53.6 °F 50% 30.14 in 10.0 mi NNW 3.5 mph - N/A   Clear
2:55 PM 75.2 °F 53.6 °F 47% 30.14 in 10.0 mi North 8.1 mph - N/A   Clear
3:15 PM 75.2 °F 53.6 °F 47% 30.14 in 10.0 mi North 9.2 mph - N/A   Clear
3:35 PM 75.2 °F 53.6 °F 47% 30.14 in 10.0 mi North 5.8 mph - N/A   Clear
3:55 PM 73.4 °F 53.6 °F 50% 30.14 in 10.0 mi North 6.9 mph - N/A   Clear
4:15 PM 73.4 °F 53.6 °F 50% 30.14 in 10.0 mi North 3.5 mph - N/A   Clear
4:35 PM 71.6 °F 53.6 °F 53% 30.15 in 10.0 mi Calm Calm - N/A   Scattered Clouds
4:55 PM 68.0 °F 55.4 °F 64% 30.15 in 10.0 mi South 5.8 mph - N/A   Scattered Clouds
5:15 PM 66.2 °F 57.2 °F 73% 30.16 in 10.0 mi SSW 4.6 mph - N/A   Scattered Clouds
5:35 PM 64.4 °F 57.2 °F 77% 30.16 in 10.0 mi Calm Calm - N/A   Unknown
5:55 PM 62.6 °F 57.2 °F 82% 30.16 in 10.0 mi Calm Calm - N/A   Unknown
6:15 PM 60.8 °F 59.0 °F 94% 30.16 in 10.0 mi Calm Calm - N/A   Unknown
6:35 PM 59.0 °F 55.4 °F 88% 30.17 in 10.0 mi Calm Calm - N/A   Unknown
6:55 PM 57.2 °F 55.4 °F 94% 30.17 in 10.0 mi Calm Calm - N/A   Unknown
7:15 PM 55.4 °F 55.4 °F 100% 30.17 in 10.0 mi Calm Calm - N/A   Unknown
7:35 PM 55.4 °F 53.6 °F 94% 30.18 in 10.0 mi Calm Calm - N/A   Unknown
7:55 PM 55.4 °F 53.6 °F 94% 30.18 in 2.5 mi Calm Calm - N/A   Mist
8:15 PM 53.6 °F 53.6 °F 100% 30.19 in 10.0 mi Calm Calm - N/A   Unknown
8:35 PM 53.6 °F 53.6 °F 100% 30.19 in 10.0 mi Calm Calm - N/A   Unknown
8:55 PM 53.6 °F 53.6 °F 100% 30.19 in 0.2 mi Calm Calm - N/A Fog Fog
9:15 PM 51.8 °F 51.8 °F 100% 30.20 in 0.2 mi Calm Calm - N/A Fog Fog
9:35 PM 51.8 °F 51.8 °F 100% 30.20 in 0.2 mi Calm Calm - N/A Fog Fog
9:55 PM 51.8 °F 51.8 °F 100% 30.20 in 0.2 mi Calm Calm - N/A Fog Fog
10:15 PM 51.8 °F 51.8 °F 100% 30.20 in 10.0 mi Calm Calm - N/A   Unknown
10:35 PM 51.8 °F 51.8 °F 100% 30.20 in 2.5 mi Calm Calm - N/A   Mist
10:55 PM 51.8 °F 51.8 °F 100% 30.19 in 7.0 mi Calm Calm - N/A   Unknown
11:15 PM 50.0 °F 50.0 °F 100% 30.19 in 10.0 mi Calm Calm - N/A   Unknown
11:35 PM 50.0 °F 50.0 °F 100% 30.19 in 1.5 mi Calm Calm - N/A   Mist
11:55 PM 48.2 °F 48.2 °F 100% 30.19 in 0.5 mi Calm Calm - N/A Fog Fog